Weather History for Hamilton Island, QU

Change the Weather History Date:

Friday, April 11, 2014

  Actual Average Record
Temperature  
Mean Temperature 78 °F -  
Max Temperature 82 °F - - ()
Min Temperature 74 °F - - ()
Cooling Degree Days 13    
Growing Degree Days 28 (Base 50)    
Moisture  
Dew Point 72 °F    
Average Humidity 80    
Maximum Humidity 94    
Minimum Humidity 69    
Precipitation  
Precipitation 0.63 in - - ()
Sea Level Pressure  
Sea Level Pressure 29.83 in    
Wind  
Wind Speed 15 mph ()    
Max Wind Speed 21 mph    
Max Gust Speed -    
Visibility 6.0 miles    
Events      
T = Trace of Precipitation, MM = Missing Value Source: Averaged Metar Reports

Daily Weather History Graph

Daily Weather History Graph

Search for Another Location

Airport:

Trip Planner

Search our weather history database for the weather conditions in past years. The results will help you decide how hot, cold, wet, or windy it might be!

Date:

Astronomy

Apr. 11, 2014 Rise Set
Actual Time 6:14 AM AEST 5:56 PM AEST
Civil Twilight 5:51 AM AEST 6:18 PM AEST
Nautical Twilight 5:26 AM AEST 6:44 PM AEST
Astronomical Twilight 5:00 AM AEST 7:10 PM AEST
Moon 3:11 PM AEST (4/11) 2:27 AM AEST (4/11)
Length of Visible Light 12h 26m
Length of Day
11h 42m
Waxing Gibbous, 83% of the Moon is Illuminated
Apr 11
Waxing Gibbous
Apr 15
Full
Apr 22
Last Quarter
Apr 29
New
May 7
First Quarter

Hourly Weather History & Observations

Time (AEST) Temp. Heat Index Dew Point Humidity Pressure Visibility Wind Dir Wind Speed Gust Speed Precip Events Conditions
12:00 AM 76 °F - 70 °F 76% 29.88 in - ESE 15.0 mph - -  
12:00 AM 75.2 °F - 69.8 °F 83% 29.89 in 6.2 mi ESE 15.0 mph - N/A   Unknown
12:30 AM 75.2 °F - 71.6 °F 89% 29.89 in 6.2 mi ESE 13.8 mph - N/A   Unknown
1:00 AM 77.0 °F - 71.6 °F 83% 29.86 in 6.2 mi ESE 16.1 mph - N/A   Unknown
1:30 AM 77.0 °F - 71.6 °F 83% 29.83 in 6.2 mi ESE 18.4 mph - N/A   Unknown
2:00 AM 77.0 °F - 71.6 °F 83% 29.83 in 6.2 mi ESE 16.1 mph - N/A   Unknown
2:30 AM 77.0 °F - 69.8 °F 78% 29.83 in 6.2 mi East 16.1 mph - N/A   Unknown
3:00 AM 77 °F - 71 °F 76% 29.82 in - ESE 15.0 mph - -  
3:00 AM 77.0 °F - 71.6 °F 83% 29.80 in 6.2 mi ESE 15.0 mph - N/A   Unknown
3:30 AM 77.0 °F - 69.8 °F 78% 29.80 in 6.2 mi East 16.1 mph - N/A   Unknown
4:00 AM 77.0 °F - 69.8 °F 78% 29.80 in 6.2 mi East 15.0 mph - N/A   Unknown
4:30 AM 77.0 °F - 68.0 °F 74% 29.80 in 6.2 mi East 17.3 mph - N/A   Unknown
5:00 AM 77.0 °F - 68.0 °F 74% 29.80 in 6.2 mi East 18.4 mph - N/A   Unknown
5:30 AM 77.0 °F - 68.0 °F 74% 29.83 in 6.2 mi ESE 16.1 mph - N/A   Unknown
6:00 AM 78 °F - 70 °F 71% 29.83 in - East 17.3 mph - -  
6:00 AM 78.8 °F - 69.8 °F 74% 29.83 in 6.2 mi East 17.3 mph - N/A   Unknown
6:30 AM 77.0 °F - 69.8 °F 78% 29.83 in 6.2 mi East 17.3 mph - N/A   Unknown
7:00 AM 78.8 °F - 69.8 °F 74% 29.83 in 6.2 mi East 17.3 mph - N/A   Unknown
7:30 AM 77.0 °F - 69.8 °F 78% 29.83 in 6.2 mi East 17.3 mph - N/A   Unknown
8:00 AM 78.8 °F - 69.8 °F 74% 29.86 in 6.2 mi East 17.3 mph - N/A   Unknown
8:30 AM 78.8 °F - 69.8 °F 74% 29.86 in 6.2 mi ESE 16.1 mph - N/A   Unknown
9:00 AM 79 °F - 71 °F 69% 29.88 in - ESE 15.0 mph - -  
9:00 AM 78.8 °F - 69.8 °F 74% 29.86 in 6.2 mi ESE 15.0 mph - N/A   Unknown
9:30 AM 80.6 °F 84.6 °F 71.6 °F 74% 29.89 in 6.2 mi ESE 15.0 mph - N/A   Unknown
10:00 AM 80.6 °F 83.9 °F 69.8 °F 70% 29.89 in 6.2 mi ESE 15.0 mph - N/A   Unknown
10:30 AM 80.6 °F 84.6 °F 71.6 °F 74% 29.86 in 6.2 mi ESE 13.8 mph - N/A   Unknown
11:00 AM 82.4 °F 87.2 °F 71.6 °F 70% 29.86 in 6.2 mi ESE 13.8 mph - N/A   Unknown
11:30 AM 80.6 °F 83.9 °F 69.8 °F 70% 29.86 in 6.2 mi ESE 15.0 mph - N/A   Unknown
12:00 PM 79 °F - 73 °F 76% 29.84 in - ESE 15.0 mph - -  
12:00 PM 78.8 °F - 73.4 °F 83% 29.83 in 6.2 mi ESE 15.0 mph - N/A   Unknown
12:06 PM 77.0 °F - 71.6 °F 83% 29.83 in 3.7 mi East 15.0 mph - N/A   Unknown
12:30 PM 75.2 °F - 73.4 °F 94% 29.83 in - East 18.4 mph - N/A   Unknown
1:00 PM 77.0 °F - 73.4 °F 89% 29.80 in 6.2 mi East 11.5 mph - N/A   Unknown
1:30 PM 78.8 °F - 73.4 °F 83% 29.80 in 6.2 mi East 16.1 mph - N/A   Unknown
2:00 PM 78.8 °F - 71.6 °F 78% 29.80 in 6.2 mi East 17.3 mph - N/A   Unknown
2:30 PM 80.6 °F 85.4 °F 73.4 °F 79% 29.77 in 6.2 mi ESE 15.0 mph - N/A   Unknown
3:00 PM 80 °F - 73 °F 74% 29.78 in - ESE 16.1 mph - -  
3:00 PM 80.6 °F 85.4 °F 73.4 °F 79% 29.77 in 6.2 mi ESE 16.1 mph - N/A   Unknown
3:30 PM 80.6 °F 85.4 °F 73.4 °F 79% 29.77 in 6.2 mi ESE 15.0 mph - N/A   Unknown
4:00 PM 80.6 °F 85.4 °F 73.4 °F 79% 29.77 in 6.2 mi ESE 15.0 mph - N/A   Unknown
4:30 PM 78.8 °F - 73.4 °F 83% 29.77 in 6.2 mi ESE 17.3 mph - N/A   Unknown
5:00 PM 78.8 °F - 73.4 °F 83% 29.77 in 6.2 mi ESE 17.3 mph - N/A   Unknown
5:30 PM 78.8 °F - 73.4 °F 83% 29.80 in 6.2 mi East 16.1 mph - N/A   Unknown
6:00 PM 78 °F - 73 °F 80% 29.80 in - ESE 16.1 mph - -  
6:00 PM 78.8 °F - 73.4 °F 83% 29.80 in 6.2 mi ESE 16.1 mph - N/A   Unknown
6:30 PM 78.8 °F - 71.6 °F 78% 29.80 in 6.2 mi East 18.4 mph - N/A   Unknown
7:00 PM 78.8 °F - 71.6 °F 78% 29.80 in 6.2 mi East 17.3 mph - N/A   Unknown
7:30 PM 78.8 °F - 73.4 °F 83% 29.83 in 6.2 mi East 17.3 mph - N/A   Unknown
8:00 PM 78.8 °F - 71.6 °F 78% 29.83 in 6.2 mi East 18.4 mph - N/A   Unknown
8:30 PM 77.0 °F - 73.4 °F 89% 29.83 in 6.2 mi East 17.3 mph - N/A   Unknown
8:56 PM 77.0 °F - 73.4 °F 89% 29.86 in 3.7 mi East 20.7 mph - N/A   Unknown
9:00 PM 76 °F - 74 °F 91% 29.85 in 3 mi East 20.7 mph - -  
9:00 PM 77.0 °F - 73.4 °F 89% 29.86 in 3.1 mi East 20.7 mph - N/A   Unknown
9:30 PM 75.2 °F - 73.4 °F 94% 29.86 in 6.2 mi East 15.0 mph - N/A   Unknown
10:00 PM 75.2 °F - 73.4 °F 94% 29.86 in 6.2 mi ESE 12.7 mph - N/A   Unknown
10:30 PM 75.2 °F - 73.4 °F 94% 29.86 in 6.2 mi ESE 9.2 mph - N/A   Unknown
11:00 PM 77.0 °F - 73.4 °F 89% 29.83 in 6.2 mi East 15.0 mph - N/A   Unknown
11:30 PM 77.0 °F - 75.2 °F 94% 29.83 in 6.2 mi East 11.5 mph - N/A   Unknown